Home   Weather   Ankara   Past weeks

Flag for Turkey Past Weather in Ankara, Turkey — Yesterday and Last 2 Weeks

Now
36 °F

Broken clouds.


Feels Like: 31 °F
Forecast: 24 / 37 °F
Wind: 6 mph from Northeast

Location: Ankara / Esenboga

Current Time: Jan 20, 2017 at 1:08:27 pm

Latest Report: Jan 20, 2017 at 12:20 pm


Visibility: 4 mi

Pressure: 30.24 "Hg (27.14 "Hg at 871m altitude)

Humidity: 87%

Dew Point: 32 °F

Location of AnkaraLocation

Past Weather in Ankara — Graph

°F

Ankara Temperature Yesterday

Maximum temperature yesterday: 34 °F (at 4:20 pm)
Minimum temperature yesterday: 30 °F (at 12:07 am)
Average temperature yesterday: 31 °F

High & Low Weather Summary for the Past Weeks

 TemperatureHumidityPressure
High46 °F (Jan 6, 4:20 pm)100% (Jan 5, 12:50 pm)30.30 "Hg (Jan 5, 12:50 pm)
Low1 °F (Jan 10, 3:20 am)52% (Jan 11, 3:20 pm)29.53 "Hg (Jan 7, 12:20 pm)
Average28 °F84%29.99 "Hg
* Reported Jan 5 11:31 am — Jan 20 11:50 am, Ankara, Weather by CustomWeather, © 2017

Note: Actual official high and low records may vary slightly from our data, if they occured in-between our weather recording intervals... More about our weather records

Advertising

Ankara Weather History for the Previous 24 Hours

Scroll right to see more
 ConditionsComfort  
Time TempWeatherWind HumidityBarometerVisibility
11:50 am
Fri, Jan 20
36 °FBroken clouds.6 mph87%30.24 "Hg4 mi
11:20 am36 °FBroken clouds.5 mph87%30.24 "Hg4 mi
10:50 am36 °FChilly.1 mph87%30.24 "Hg2 mi
10:20 am37 °FChilly.1 mph100%30.24 "Hg2 mi
9:50 am34 °FChilly.2 mph93%30.24 "Hg1 mi
9:20 am32 °FLight snow. Mostly cloudy.3 mph100%30.21 "Hg1 mi
8:50 am32 °FLight snow. Ice fog.1 mph100%30.21 "Hg2 mi
8:20 am32 °FLight snow. Mostly cloudy.3 mph100%30.21 "Hg1 mi
7:50 am32 °FLight snow. Ice fog.2 mph100%30.21 "Hg2 mi
7:20 am32 °FLight snow. Ice fog.2 mph100%30.21 "Hg2 mi
6:50 am32 °FLight snow. Ice fog.2 mph100%30.21 "Hg2 mi
6:20 am32 °FLight snow. Ice fog.5 mph93%30.21 "Hg2 mi
5:50 am32 °FLight snow. Ice fog.3 mph93%30.21 "Hg2 mi
5:20 am32 °FPassing clouds.3 mph93%30.21 "Hg4 mi
4:50 am32 °FPassing clouds.2 mph93%30.21 "Hg4 mi
4:20 am32 °FPassing clouds.2 mph93%30.21 "Hg4 mi
3:50 am32 °FPassing clouds.1 mph93%30.21 "Hg4 mi
3:20 am32 °FPassing clouds.1 mph93%30.21 "Hg4 mi
2:50 am32 °FPassing clouds.2 mph93%30.21 "Hg4 mi
2:20 am32 °FPassing clouds.2 mph93%30.21 "Hg4 mi
1:50 am32 °FPassing clouds.3 mph93%30.21 "Hg4 mi
1:20 am32 °FIce fog.5 mph93%30.21 "Hg3 mi
12:50 am32 °FIce fog.3 mph93%30.21 "Hg3 mi
12:20 am32 °FPassing clouds.2 mph93%30.21 "Hg4 mi
11:50 pm
Thu, Jan 19
32 °FIce fog.3 mph93%30.21 "Hg3 mi
11:20 pm32 °FIce fog.2 mph93%30.21 "Hg3 mi
10:50 pm32 °FIce fog.1 mph93%30.24 "Hg3 mi
10:20 pm32 °FIce fog.1 mph93%30.24 "Hg3 mi
9:50 pm32 °FIce fog.1 mph93%30.24 "Hg3 mi
9:20 pm32 °FIce fog.1 mph93%30.24 "Hg3 mi
8:50 pm32 °FIce fog.2 mph93%30.24 "Hg3 mi
8:20 pm32 °FIce fog.5 mph93%30.24 "Hg3 mi
7:50 pm32 °FPassing clouds.5 mph93%30.24 "Hg4 mi
7:20 pm32 °FPassing clouds.3 mph100%30.24 "Hg4 mi
6:50 pm34 °FPassing clouds.5 mph93%30.24 "Hg4 mi
6:20 pm34 °FPassing clouds.5 mph93%30.24 "Hg4 mi
5:50 pm34 °FPartly sunny.5 mph93%30.24 "Hg4 mi
5:20 pm34 °FPartly sunny.2 mph93%30.24 "Hg4 mi
4:50 pm34 °FPartly sunny.1 mph100%30.24 "Hg5 mi
4:20 pm34 °FPartly sunny.5 mph100%30.24 "Hg5 mi
3:50 pm32 °FPartly sunny.3 mph100%30.24 "Hg4 mi
3:20 pm32 °FBroken clouds.3 mph100%30.24 "Hg4 mi
2:50 pm32 °FBroken clouds.3 mph100%30.24 "Hg4 mi
2:20 pm32 °FBroken clouds.5 mph100%30.24 "Hg5 mi
1:50 pm32 °FPartly sunny.2 mph100%30.24 "Hg4 mi
1:20 pm32 °FIce fog.5 mph100%30.27 "Hg2 mi
Weather by CustomWeather, © 2017

See weather overviewHow to use our weather pages